Time,TemperatureF,DewpointF,PressureIn,WindDirection,WindDirectionDegrees,WindSpeedMPH,WindSpeedGustMPH,Humidity,HourlyPrecipIn,Conditions,Clouds,dailyrainin,SoftwareType,DateUTC
2013-02-24 00:01:00,32.7,27.8,30.25,North,0,3.8,9.2,82,0.00,,,0.00,pywws,2013-02-24 00:01:00,
2013-02-24 00:06:00,32.7,27.5,30.25,NW,315,0.7,4.5,81,0.00,,,0.00,pywws,2013-02-24 00:06:00,
2013-02-24 00:11:00,32.9,28.0,30.25,North,0,1.6,5.4,82,0.00,,,0.00,pywws,2013-02-24 00:11:00,
2013-02-24 00:17:00,32.9,28.3,30.25,North,0,0.7,2.2,83,0.00,,,0.00,pywws,2013-02-24 00:17:00,
2013-02-24 00:22:00,32.9,28.3,30.24,North,0,1.6,4.5,83,0.00,,,0.00,pywws,2013-02-24 00:22:00,
2013-02-24 00:33:00,32.9,28.3,30.24,NE,45,0.7,2.2,83,0.00,,,0.00,pywws,2013-02-24 00:33:00,
2013-02-24 00:38:00,32.9,28.3,30.24,NW,315,2.2,4.5,83,0.00,,,0.00,pywws,2013-02-24 00:38:00,
2013-02-24 00:43:00,32.9,28.3,30.24,North,0,1.6,3.1,83,0.00,,,0.00,pywws,2013-02-24 00:43:00,
2013-02-24 00:49:00,32.9,28.3,30.24,NW,315,2.2,6.9,83,0.00,,,0.00,pywws,2013-02-24 00:49:00,
2013-02-24 00:54:00,32.7,28.1,30.25,North,0,2.2,5.4,83,0.00,,,0.00,pywws,2013-02-24 00:54:00,
2013-02-24 01:05:00,32.9,28.3,30.25,NW,315,1.6,3.8,83,0.00,,,0.00,pywws,2013-02-24 01:05:00,
2013-02-24 01:10:00,33.1,28.5,30.24,North,0,1.6,3.8,83,0.00,,,0.00,pywws,2013-02-24 01:10:00,
2013-02-24 01:15:00,32.9,28.3,30.24,North,-999,3.1,7.6,83,0.00,,,0.00,pywws,2013-02-24 01:15:00,
2013-02-24 01:21:00,32.9,28.3,30.24,North,0,1.6,3.1,83,0.00,,,0.00,pywws,2013-02-24 01:21:00,
2013-02-24 01:31:00,33.1,28.5,30.24,NW,315,1.6,6.9,83,0.00,,,0.00,pywws,2013-02-24 01:31:00,
2013-02-24 01:37:00,33.1,28.2,30.24,North,0,1.6,3.8,82,0.00,,,0.00,pywws,2013-02-24 01:37:00,
2013-02-24 01:42:00,33.1,28.2,30.24,NE,45,1.6,3.8,82,0.00,,,0.00,pywws,2013-02-24 01:42:00,
2013-02-24 01:47:00,33.1,28.2,30.24,North,-999,0.0,2.2,82,0.00,,,0.00,pywws,2013-02-24 01:47:00,
2013-02-24 01:53:00,33.1,27.9,30.24,North,0,0.7,3.8,81,0.00,,,0.00,pywws,2013-02-24 01:53:00,
2013-02-24 02:03:00,33.1,27.9,30.24,North,0,0.7,4.5,81,0.00,,,0.00,pywws,2013-02-24 02:03:00,
2013-02-24 02:09:00,33.1,27.9,30.24,North,0,2.2,3.1,81,0.00,,,0.00,pywws,2013-02-24 02:09:00,
2013-02-24 02:14:00,33.1,27.9,30.24,North,0,2.2,4.5,81,0.00,,,0.00,pywws,2013-02-24 02:14:00,
2013-02-24 02:19:00,32.9,27.7,30.24,NW,315,0.7,3.8,81,0.00,,,0.00,pywws,2013-02-24 02:19:00,
2013-02-24 02:25:00,33.1,27.9,30.24,North,0,0.7,2.2,81,0.00,,,0.00,pywws,2013-02-24 02:25:00,
2013-02-24 02:35:00,33.1,27.9,30.24,NW,315,0.7,3.1,81,0.00,,,0.00,pywws,2013-02-24 02:35:00,
2013-02-24 02:41:00,33.1,27.9,30.24,West,270,1.6,3.8,81,0.00,,,0.00,pywws,2013-02-24 02:41:00,
2013-02-24 02:46:00,33.1,27.9,30.24,NE,45,2.2,6.0,81,0.00,,,0.00,pywws,2013-02-24 02:46:00,
2013-02-24 02:51:00,33.1,27.9,30.24,North,0,1.6,3.8,81,0.00,,,0.00,pywws,2013-02-24 02:51:00,
2013-02-24 03:02:00,33.1,27.6,30.23,NE,45,0.7,1.6,80,0.00,,,0.00,pywws,2013-02-24 03:02:00,
2013-02-24 03:07:00,33.1,27.6,30.24,NW,315,0.7,1.6,80,0.00,,,0.00,pywws,2013-02-24 03:07:00,
2013-02-24 03:12:00,33.1,27.0,30.23,WNW,292,3.1,6.9,78,0.00,,,0.00,pywws,2013-02-24 03:12:00,
2013-02-24 03:17:00,33.1,27.0,30.24,NW,315,2.2,4.5,78,0.00,,,0.00,pywws,2013-02-24 03:17:00,
2013-02-24 03:22:00,33.1,26.7,30.24,North,0,2.2,4.5,77,0.00,,,0.00,pywws,2013-02-24 03:22:00,
2013-02-24 03:32:00,33.1,26.7,30.23,North,0,1.6,3.8,77,0.00,,,0.00,pywws,2013-02-24 03:32:00,
2013-02-24 03:37:00,33.1,26.7,30.24,North,0,0.7,3.1,77,0.00,,,0.00,pywws,2013-02-24 03:37:00,
2013-02-24 03:42:00,33.1,26.7,30.23,NE,45,3.1,5.4,77,0.00,,,0.00,pywws,2013-02-24 03:42:00,
2013-02-24 03:47:00,33.1,26.7,30.24,NE,45,1.6,3.8,77,0.00,,,0.00,pywws,2013-02-24 03:47:00,
2013-02-24 03:52:00,33.1,26.7,30.24,North,-999,0.0,1.6,77,0.00,,,0.00,pywws,2013-02-24 03:52:00,
2013-02-24 03:57:00,33.1,26.7,30.24,North,0,0.7,3.8,77,0.00,,,0.00,pywws,2013-02-24 03:57:00,
2013-02-24 04:02:00,33.1,26.7,30.24,NNE,22,0.7,3.1,77,0.00,,,0.00,pywws,2013-02-24 04:02:00,
2013-02-24 04:07:00,33.1,26.7,30.24,NNE,22,0.7,3.1,77,0.00,,,0.00,pywws,2013-02-24 04:07:00,
2013-02-24 04:12:00,33.1,26.7,30.23,North,0,0.7,4.5,77,0.00,,,0.00,pywws,2013-02-24 04:12:00,
2013-02-24 04:17:00,33.1,26.7,30.24,North,0,2.2,5.4,77,0.00,,,0.00,pywws,2013-02-24 04:17:00,
2013-02-24 04:22:00,33.1,26.7,30.24,West,270,3.1,5.4,77,0.00,,,0.00,pywws,2013-02-24 04:22:00,
2013-02-24 04:32:00,33.1,26.7,30.24,NW,315,1.6,3.8,77,0.00,,,0.00,pywws,2013-02-24 04:32:00,
2013-02-24 04:37:00,33.1,27.0,30.23,North,-999,0.0,2.2,78,0.00,,,0.00,pywws,2013-02-24 04:37:00,
2013-02-24 04:42:00,32.9,26.8,30.23,WNW,292,3.8,6.0,78,0.00,,,0.00,pywws,2013-02-24 04:42:00,
2013-02-24 04:47:00,32.9,26.8,30.23,North,0,2.2,5.4,78,0.00,,,0.00,pywws,2013-02-24 04:47:00,
2013-02-24 04:52:00,33.1,27.0,30.24,North,0,3.1,4.5,78,0.00,,,0.00,pywws,2013-02-24 04:52:00,
2013-02-24 05:02:00,32.9,26.8,30.24,NW,315,1.6,3.8,78,0.00,,,0.00,pywws,2013-02-24 05:02:00,
2013-02-24 05:07:00,32.9,26.8,30.24,West,270,1.6,3.1,78,0.00,,,0.00,pywws,2013-02-24 05:07:00,
2013-02-24 05:12:00,32.9,26.5,30.24,NE,45,1.6,3.1,77,0.00,,,0.00,pywws,2013-02-24 05:12:00,
2013-02-24 05:17:00,32.9,26.5,30.24,NW,315,3.8,6.0,77,0.00,,,0.00,pywws,2013-02-24 05:17:00,
2013-02-24 05:22:00,32.9,26.5,30.24,North,0,3.1,5.4,77,0.00,,,0.00,pywws,2013-02-24 05:22:00,
2013-02-24 05:32:00,33.1,26.7,30.24,NNE,22,2.2,5.4,77,0.00,,,0.00,pywws,2013-02-24 05:32:00,
2013-02-24 05:37:00,32.7,26.3,30.24,North,0,2.2,5.4,77,0.00,,,0.00,pywws,2013-02-24 05:37:00,
2013-02-24 05:42:00,32.9,26.5,30.24,NE,45,2.2,5.4,77,0.00,,,0.00,pywws,2013-02-24 05:42:00,
2013-02-24 05:47:00,32.9,26.5,30.24,North,0,2.2,6.9,77,0.00,,,0.00,pywws,2013-02-24 05:47:00,
2013-02-24 05:52:00,32.9,26.5,30.24,West,270,2.2,3.8,77,0.00,,,0.00,pywws,2013-02-24 05:52:00,
2013-02-24 06:02:00,32.9,26.5,30.24,NW,315,2.2,3.8,77,0.00,,,0.00,pywws,2013-02-24 06:02:00,
2013-02-24 06:07:00,32.9,26.5,30.24,North,0,1.6,3.8,77,0.00,,,0.00,pywws,2013-02-24 06:07:00,
2013-02-24 06:12:00,32.9,26.5,30.24,North,0,2.2,5.4,77,0.00,,,0.00,pywws,2013-02-24 06:12:00,
2013-02-24 06:17:00,33.1,26.7,30.25,North,0,2.2,5.4,77,0.00,,,0.00,pywws,2013-02-24 06:17:00,
2013-02-24 06:22:00,32.7,26.3,30.24,North,-999,0.0,3.8,77,0.00,,,0.00,pywws,2013-02-24 06:22:00,
2013-02-24 06:32:00,32.9,26.5,30.24,North,0,0.7,2.2,77,0.00,,,0.00,pywws,2013-02-24 06:32:00,
2013-02-24 06:37:00,32.9,26.8,30.25,North,0,1.6,3.8,78,0.00,,,0.00,pywws,2013-02-24 06:37:00,
2013-02-24 06:42:00,32.9,26.8,30.25,NW,315,1.6,3.8,78,0.00,,,0.00,pywws,2013-02-24 06:42:00,
2013-02-24 06:47:00,32.9,26.8,30.25,NW,315,0.7,2.2,78,0.00,,,0.00,pywws,2013-02-24 06:47:00,
2013-02-24 06:52:00,32.9,26.5,30.25,NW,315,2.2,6.0,77,0.00,,,0.00,pywws,2013-02-24 06:52:00,
2013-02-24 07:02:00,32.9,26.5,30.25,North,0,0.7,3.1,77,0.00,,,0.00,pywws,2013-02-24 07:02:00,
2013-02-24 07:07:00,32.9,26.5,30.25,North,0,2.2,4.5,77,0.00,,,0.00,pywws,2013-02-24 07:07:00,
2013-02-24 07:12:00,32.9,26.5,30.25,NW,315,2.2,3.8,77,0.00,,,0.00,pywws,2013-02-24 07:12:00,
2013-02-24 07:17:00,32.9,26.8,30.25,NNE,22,2.2,3.1,78,0.00,,,0.00,pywws,2013-02-24 07:17:00,
2013-02-24 07:22:00,32.7,26.3,30.26,North,0,2.2,4.5,77,0.00,,,0.00,pywws,2013-02-24 07:22:00,
2013-02-24 07:32:00,32.9,26.5,30.26,North,0,0.7,3.1,77,0.00,,,0.00,pywws,2013-02-24 07:32:00,
2013-02-24 07:37:00,32.9,26.5,30.26,NW,315,1.6,5.4,77,0.00,,,0.00,pywws,2013-02-24 07:37:00,
2013-02-24 07:42:00,32.9,26.5,30.26,North,0,3.1,6.9,77,0.00,,,0.00,pywws,2013-02-24 07:42:00,
2013-02-24 07:47:00,33.1,26.7,30.26,North,0,1.6,3.8,77,0.00,,,0.00,pywws,2013-02-24 07:47:00,
2013-02-24 07:52:00,33.1,26.7,30.26,North,0,0.7,3.1,77,0.00,,,0.00,pywws,2013-02-24 07:52:00,
2013-02-24 08:02:00,33.1,26.7,30.26,North,0,3.1,5.4,77,0.00,,,0.00,pywws,2013-02-24 08:02:00,
2013-02-24 08:07:00,33.1,26.7,30.26,North,0,2.2,3.8,77,0.00,,,0.00,pywws,2013-02-24 08:07:00,
2013-02-24 08:12:00,33.1,26.7,30.26,SE,135,0.7,3.1,77,0.00,,,0.00,pywws,2013-02-24 08:12:00,
2013-02-24 08:17:00,33.3,26.8,30.26,North,0,1.6,3.1,77,0.00,,,0.00,pywws,2013-02-24 08:17:00,
2013-02-24 08:22:00,33.3,26.8,30.27,North,0,3.1,7.6,77,0.00,,,0.00,pywws,2013-02-24 08:22:00,
2013-02-24 08:32:00,33.1,26.7,30.27,North,0,1.6,3.1,77,0.00,,,0.00,pywws,2013-02-24 08:32:00,
2013-02-24 08:37:00,33.3,26.8,30.27,NE,45,3.1,5.4,77,0.00,,,0.00,pywws,2013-02-24 08:37:00,
2013-02-24 08:42:00,39.6,33.0,30.27,NW,315,1.6,3.1,77,0.00,,,0.00,pywws,2013-02-24 08:42:00,
2013-02-24 08:47:00,33.4,27.0,30.27,NE,45,1.6,3.8,77,0.00,,,0.00,pywws,2013-02-24 08:47:00,
2013-02-24 08:52:00,33.6,27.2,30.27,West,270,1.6,3.8,77,0.00,,,0.00,pywws,2013-02-24 08:52:00,
2013-02-24 09:02:00,33.4,27.0,30.27,North,0,0.7,3.1,77,0.00,,,0.00,pywws,2013-02-24 09:02:00,
2013-02-24 09:07:00,33.4,27.0,30.28,North,0,3.1,7.6,77,0.00,,,0.00,pywws,2013-02-24 09:07:00,
2013-02-24 09:12:00,33.6,27.2,30.27,NE,45,3.1,4.5,77,0.00,,,0.00,pywws,2013-02-24 09:12:00,
2013-02-24 09:17:00,33.6,27.2,30.27,North,0,0.7,3.8,77,0.00,,,0.00,pywws,2013-02-24 09:17:00,
2013-02-24 09:22:00,33.6,26.9,30.28,North,0,2.2,6.9,76,0.00,,,0.00,pywws,2013-02-24 09:22:00,
2013-02-24 09:32:00,33.6,26.9,30.28,North,0,1.6,6.0,76,0.00,,,0.00,pywws,2013-02-24 09:32:00,
2013-02-24 09:37:00,33.8,26.7,30.28,NW,315,3.1,8.3,75,0.00,,,0.00,pywws,2013-02-24 09:37:00,
2013-02-24 09:42:00,33.8,26.7,30.28,North,0,2.2,5.4,75,0.00,,,0.00,pywws,2013-02-24 09:42:00,
2013-02-24 09:47:00,33.8,26.7,30.28,NE,45,1.6,4.5,75,0.00,,,0.00,pywws,2013-02-24 09:47:00,
2013-02-24 09:52:00,34.0,26.9,30.27,North,0,4.5,10.7,75,0.00,,,0.00,pywws,2013-02-24 09:52:00,
2013-02-24 10:02:00,34.0,26.9,30.28,NW,315,4.5,9.2,75,0.00,,,0.00,pywws,2013-02-24 10:02:00,
2013-02-24 10:07:00,34.0,26.9,30.28,NE,45,0.7,3.1,75,0.00,,,0.00,pywws,2013-02-24 10:07:00,
2013-02-24 10:12:00,34.2,27.1,30.28,West,270,1.6,3.1,75,0.00,,,0.00,pywws,2013-02-24 10:12:00,
2013-02-24 10:17:00,34.3,26.9,30.28,NE,45,4.5,9.2,74,0.00,,,0.00,pywws,2013-02-24 10:17:00,
2013-02-24 10:22:00,34.3,26.9,30.28,NW,315,1.6,3.8,74,0.00,,,0.00,pywws,2013-02-24 10:22:00,
2013-02-24 10:32:00,34.3,26.9,30.28,North,0,2.2,5.4,74,0.00,,,0.00,pywws,2013-02-24 10:32:00,
2013-02-24 10:37:00,34.5,26.8,30.28,North,-999,4.5,6.9,73,0.00,,,0.00,pywws,2013-02-24 10:37:00,
2013-02-24 10:42:00,34.7,26.9,30.27,NE,45,2.2,4.5,73,0.00,,,0.00,pywws,2013-02-24 10:42:00,
2013-02-24 10:47:00,34.7,26.6,30.27,North,0,5.4,9.8,72,0.00,,,0.00,pywws,2013-02-24 10:47:00,
2013-02-24 10:52:00,34.7,26.6,30.28,North,0,3.8,6.9,72,0.00,,,0.00,pywws,2013-02-24 10:52:00,
2013-02-24 11:02:00,34.7,26.6,30.28,NW,315,3.8,8.3,72,0.00,,,0.00,pywws,2013-02-24 11:02:00,
2013-02-24 11:07:00,34.7,26.3,30.28,NW,315,2.2,6.0,71,0.00,,,0.00,pywws,2013-02-24 11:07:00,
2013-02-24 11:12:00,35.2,26.8,30.28,NW,315,3.1,6.9,71,0.00,,,0.00,pywws,2013-02-24 11:12:00,
2013-02-24 11:17:00,35.2,26.5,30.28,North,0,2.2,7.6,70,0.00,,,0.00,pywws,2013-02-24 11:17:00,
2013-02-24 11:22:00,34.5,25.8,30.28,NW,315,1.6,7.6,70,0.00,,,0.00,pywws,2013-02-24 11:22:00,
2013-02-24 11:32:00,35.2,26.5,30.28,WNW,292,3.8,6.9,70,0.00,,,0.00,pywws,2013-02-24 11:32:00,
2013-02-24 11:37:00,35.4,26.6,30.28,North,0,3.1,5.4,70,0.00,,,0.00,pywws,2013-02-24 11:37:00,
2013-02-24 11:42:00,35.2,26.5,30.28,North,0,4.5,8.3,70,0.00,,,0.00,pywws,2013-02-24 11:42:00,
2013-02-24 11:47:00,35.1,26.3,30.28,NE,45,2.2,6.9,70,0.00,,,0.00,pywws,2013-02-24 11:47:00,
2013-02-24 11:52:00,35.2,26.8,30.28,NE,45,4.5,9.2,71,0.00,,,0.00,pywws,2013-02-24 11:52:00,
2013-02-24 12:02:00,35.2,26.8,30.28,West,270,2.2,3.8,71,0.00,,,0.00,pywws,2013-02-24 12:02:00,
2013-02-24 12:07:00,35.4,27.0,30.28,NW,315,3.8,6.9,71,0.00,,,0.00,pywws,2013-02-24 12:07:00,
2013-02-24 12:12:00,35.2,26.8,30.28,North,0,3.8,9.2,71,0.00,,,0.00,pywws,2013-02-24 12:12:00,
2013-02-24 12:17:00,35.2,26.8,30.28,NW,315,3.1,5.4,71,0.00,,,0.00,pywws,2013-02-24 12:17:00,
2013-02-24 12:22:00,35.2,26.8,30.28,NE,45,3.1,6.0,71,0.00,,,0.00,pywws,2013-02-24 12:22:00,
2013-02-24 12:32:00,40.5,31.8,30.28,NE,45,3.8,8.3,71,0.00,,,0.00,pywws,2013-02-24 12:32:00,
2013-02-24 12:37:00,35.1,27.0,30.27,North,0,3.1,6.9,72,0.00,,,0.00,pywws,2013-02-24 12:37:00,
2013-02-24 12:42:00,35.1,27.0,30.27,NE,45,2.2,5.4,72,0.00,,,0.00,pywws,2013-02-24 12:42:00,
2013-02-24 12:47:00,35.2,27.1,30.27,NE,45,2.2,6.9,72,0.00,,,0.00,pywws,2013-02-24 12:47:00,
2013-02-24 12:52:00,40.6,32.3,30.27,North,0,3.1,9.2,72,0.00,,,0.00,pywws,2013-02-24 12:52:00,
2013-02-24 13:02:00,35.2,27.1,30.27,NW,315,2.2,5.4,72,0.00,,,0.00,pywws,2013-02-24 13:02:00,
2013-02-24 13:07:00,35.2,27.1,30.28,NE,45,1.6,3.1,72,0.00,,,0.00,pywws,2013-02-24 13:07:00,
2013-02-24 13:12:00,35.4,27.3,30.28,NNE,22,2.2,3.8,72,0.00,,,0.00,pywws,2013-02-24 13:12:00,
2013-02-24 13:17:00,35.6,27.5,30.27,NW,315,0.7,3.1,72,0.00,,,0.00,pywws,2013-02-24 13:17:00,
2013-02-24 13:22:00,35.6,27.5,30.27,NE,45,3.8,6.9,72,0.00,,,0.00,pywws,2013-02-24 13:22:00,
2013-02-24 13:32:00,35.6,27.1,30.28,North,0,3.8,8.3,71,0.00,,,0.00,pywws,2013-02-24 13:32:00,
2013-02-24 13:37:00,35.6,27.1,30.28,NW,315,3.8,9.2,71,0.00,,,0.00,pywws,2013-02-24 13:37:00,
2013-02-24 13:42:00,35.8,27.3,30.27,North,0,3.1,8.3,71,0.00,,,0.00,pywws,2013-02-24 13:42:00,
2013-02-24 13:47:00,35.8,27.3,30.27,South,180,2.2,7.6,71,0.00,,,0.00,pywws,2013-02-24 13:47:00,
2013-02-24 13:52:00,36.1,27.7,30.27,North,0,1.6,3.8,71,0.00,,,0.00,pywws,2013-02-24 13:52:00,
2013-02-24 14:02:00,36.5,27.7,30.27,NW,315,4.5,10.7,70,0.00,,,0.00,pywws,2013-02-24 14:02:00,
2013-02-24 14:07:00,36.3,27.5,30.27,NE,45,3.1,7.6,70,0.00,,,0.00,pywws,2013-02-24 14:07:00,
2013-02-24 14:12:00,36.0,27.1,30.27,NE,45,3.8,6.9,70,0.00,,,0.00,pywws,2013-02-24 14:12:00,
2013-02-24 14:17:00,36.0,27.1,30.27,North,0,2.2,5.4,70,0.00,,,0.00,pywws,2013-02-24 14:17:00,
2013-02-24 14:22:00,36.0,26.8,30.26,North,0,2.2,5.4,69,0.00,,,0.00,pywws,2013-02-24 14:22:00,
2013-02-24 14:32:00,35.8,26.6,30.27,NW,315,3.8,10.7,69,0.00,,,0.00,pywws,2013-02-24 14:32:00,
2013-02-24 14:37:00,36.0,27.1,30.26,North,0,0.7,3.8,70,0.00,,,0.00,pywws,2013-02-24 14:37:00,
2013-02-24 14:42:00,35.8,26.6,30.27,SW,225,0.7,2.2,69,0.00,,,0.00,pywws,2013-02-24 14:42:00,
2013-02-24 14:47:00,36.0,26.8,30.27,NE,45,2.2,5.4,69,0.00,,,0.00,pywws,2013-02-24 14:47:00,
2013-02-24 14:52:00,36.1,27.0,30.27,WNW,292,2.2,4.5,69,0.00,,,0.00,pywws,2013-02-24 14:52:00,
2013-02-24 15:02:00,36.1,27.0,30.27,NE,45,1.6,3.8,69,0.00,,,0.00,pywws,2013-02-24 15:02:00,
2013-02-24 15:07:00,36.0,26.8,30.27,North,0,5.4,8.3,69,0.00,,,0.00,pywws,2013-02-24 15:07:00,
2013-02-24 15:12:00,36.0,27.1,30.27,NE,45,3.1,6.9,70,0.00,,,0.00,pywws,2013-02-24 15:12:00,
2013-02-24 15:17:00,35.8,27.0,30.26,NW,315,1.6,4.5,70,0.00,,,0.00,pywws,2013-02-24 15:17:00,
2013-02-24 15:22:00,35.8,27.3,30.27,North,0,0.7,2.2,71,0.00,,,0.00,pywws,2013-02-24 15:22:00,
2013-02-24 15:32:00,35.8,27.3,30.27,North,0,3.1,4.5,71,0.00,,,0.00,pywws,2013-02-24 15:32:00,
2013-02-24 15:37:00,35.8,27.3,30.27,NE,45,2.2,4.5,71,0.00,,,0.00,pywws,2013-02-24 15:37:00,
2013-02-24 15:42:00,35.6,27.5,30.27,North,-999,0.0,2.2,72,0.00,,,0.00,pywws,2013-02-24 15:42:00,
2013-02-24 15:47:00,35.4,27.3,30.27,North,0,3.8,9.2,72,0.00,,,0.00,pywws,2013-02-24 15:47:00,
2013-02-24 15:52:00,35.4,27.3,30.27,North,0,2.2,5.4,72,0.00,,,0.00,pywws,2013-02-24 15:52:00,
2013-02-24 16:02:00,35.4,27.6,30.27,NE,45,3.8,8.3,73,0.00,,,0.00,pywws,2013-02-24 16:02:00,
2013-02-24 16:07:00,35.4,27.6,30.27,SE,135,2.2,4.5,73,0.00,,,0.00,pywws,2013-02-24 16:07:00,
2013-02-24 16:12:00,35.4,27.0,30.27,NW,315,0.7,3.1,71,0.00,,,0.00,pywws,2013-02-24 16:12:00,
2013-02-24 16:17:00,35.4,27.0,30.27,NE,45,3.1,6.9,71,0.00,,,0.00,pywws,2013-02-24 16:17:00,
2013-02-24 16:22:00,35.4,27.0,30.27,NE,45,3.1,6.0,71,0.00,,,0.00,pywws,2013-02-24 16:22:00,
2013-02-24 16:32:00,35.4,27.0,30.27,North,0,2.2,4.5,71,0.00,,,0.00,pywws,2013-02-24 16:32:00,
2013-02-24 16:37:00,35.2,26.8,30.27,North,0,0.7,3.8,71,0.00,,,0.00,pywws,2013-02-24 16:37:00,
2013-02-24 16:42:00,35.2,27.1,30.28,North,0,3.1,6.0,72,0.00,,,0.00,pywws,2013-02-24 16:42:00,
2013-02-24 16:47:00,34.9,27.1,30.28,NE,45,3.8,8.3,73,0.00,,,0.00,pywws,2013-02-24 16:47:00,
2013-02-24 16:52:00,35.1,27.3,30.28,North,0,4.5,6.9,73,0.00,,,0.00,pywws,2013-02-24 16:52:00,
2013-02-24 17:02:00,35.1,27.3,30.28,NE,45,2.2,5.4,73,0.00,,,0.00,pywws,2013-02-24 17:02:00,
2013-02-24 17:07:00,35.1,27.3,30.28,North,0,3.1,8.3,73,0.00,,,0.00,pywws,2013-02-24 17:07:00,
2013-02-24 17:12:00,34.9,26.8,30.28,North,0,2.2,4.5,72,0.00,,,0.00,pywws,2013-02-24 17:12:00,
2013-02-24 17:17:00,34.9,26.8,30.28,NW,315,2.2,4.5,72,0.00,,,0.00,pywws,2013-02-24 17:17:00,
2013-02-24 17:22:00,34.9,26.8,30.28,WSW,248,3.8,7.6,72,0.00,,,0.00,pywws,2013-02-24 17:22:00,
2013-02-24 17:32:00,34.9,26.8,30.28,NW,315,2.2,4.5,72,0.00,,,0.00,pywws,2013-02-24 17:32:00,
2013-02-24 17:37:00,34.9,26.8,30.29,NE,45,3.1,7.6,72,0.00,,,0.00,pywws,2013-02-24 17:37:00,
2013-02-24 17:42:00,35.1,27.0,30.29,North,0,3.1,4.5,72,0.00,,,0.00,pywws,2013-02-24 17:42:00,
2013-02-24 17:47:00,34.9,26.8,30.29,North,0,1.6,3.1,72,0.00,,,0.00,pywws,2013-02-24 17:47:00,
2013-02-24 17:52:00,34.9,26.8,30.29,NE,45,2.2,5.4,72,0.00,,,0.00,pywws,2013-02-24 17:52:00,
2013-02-24 18:02:00,34.7,26.6,30.29,NNE,22,2.2,6.0,72,0.00,,,0.00,pywws,2013-02-24 18:02:00,
2013-02-24 18:07:00,37.4,29.2,30.29,North,0,3.8,7.6,72,0.00,,,0.00,pywws,2013-02-24 18:07:00,
2013-02-24 18:12:00,34.5,26.1,30.30,NW,315,3.8,9.8,71,0.00,,,0.00,pywws,2013-02-24 18:12:00,
2013-02-24 18:17:00,34.7,26.3,30.30,North,0,2.2,6.9,71,0.00,,,0.00,pywws,2013-02-24 18:17:00,
2013-02-24 18:22:00,32.7,24.0,30.30,NNW,338,2.2,4.5,70,0.00,,,0.00,pywws,2013-02-24 18:22:00,
2013-02-24 18:32:00,34.7,25.9,30.31,NE,45,3.1,6.9,70,0.00,,,0.00,pywws,2013-02-24 18:32:00,
2013-02-24 18:37:00,34.9,25.8,30.31,North,0,2.2,6.0,69,0.00,,,0.00,pywws,2013-02-24 18:37:00,
2013-02-24 18:42:00,34.7,25.9,30.30,WNW,292,3.8,6.9,70,0.00,,,0.00,pywws,2013-02-24 18:42:00,
2013-02-24 18:47:00,34.7,25.9,30.30,North,0,2.2,4.5,70,0.00,,,0.00,pywws,2013-02-24 18:47:00,
2013-02-24 18:52:00,34.7,25.9,30.30,NW,315,0.7,3.8,70,0.00,,,0.00,pywws,2013-02-24 18:52:00,
2013-02-24 19:02:00,34.7,25.9,30.30,North,0,0.7,1.6,70,0.00,,,0.00,pywws,2013-02-24 19:02:00,
2013-02-24 19:07:00,34.7,25.9,30.30,North,0,1.6,3.8,70,0.00,,,0.00,pywws,2013-02-24 19:07:00,
2013-02-24 19:12:00,34.5,25.4,30.30,NE,45,2.2,5.4,69,0.00,,,0.00,pywws,2013-02-24 19:12:00,
2013-02-24 19:17:00,34.7,25.2,30.30,NW,315,3.8,6.9,68,0.00,,,0.00,pywws,2013-02-24 19:17:00,
2013-02-24 19:22:00,34.9,25.8,30.30,NW,315,1.6,3.1,69,0.00,,,0.00,pywws,2013-02-24 19:22:00,
2013-02-24 19:32:00,34.9,25.8,30.30,North,0,3.1,6.9,69,0.00,,,0.00,pywws,2013-02-24 19:32:00,
2013-02-24 19:37:00,34.9,25.8,30.30,North,0,0.7,2.2,69,0.00,,,0.00,pywws,2013-02-24 19:37:00,
2013-02-24 19:42:00,34.9,25.8,30.29,NW,315,3.8,8.3,69,0.00,,,0.00,pywws,2013-02-24 19:42:00,
2013-02-24 19:47:00,34.9,25.8,30.30,North,0,2.2,5.4,69,0.00,,,0.00,pywws,2013-02-24 19:47:00,
2013-02-24 19:52:00,34.7,25.6,30.30,North,0,1.6,6.0,69,0.00,,,0.00,pywws,2013-02-24 19:52:00,
2013-02-24 20:02:00,34.9,25.4,30.30,NW,315,1.6,3.8,68,0.00,,,0.00,pywws,2013-02-24 20:02:00,
2013-02-24 20:07:00,34.7,25.6,30.30,North,0,1.6,3.8,69,0.00,,,0.00,pywws,2013-02-24 20:07:00,
2013-02-24 20:12:00,34.9,25.4,30.30,North,0,1.6,5.4,68,0.00,,,0.00,pywws,2013-02-24 20:12:00,
2013-02-24 20:17:00,34.9,25.1,30.30,NW,315,2.2,5.4,67,0.00,,,0.00,pywws,2013-02-24 20:17:00,
2013-02-24 20:22:00,34.9,25.4,30.30,WSW,248,1.6,3.1,68,0.00,,,0.00,pywws,2013-02-24 20:22:00,
2013-02-24 20:32:00,34.9,25.1,30.31,NE,45,3.8,6.9,67,0.00,,,0.00,pywws,2013-02-24 20:32:00,
2013-02-24 20:37:00,34.9,25.1,30.30,North,0,2.2,3.8,67,0.00,,,0.00,pywws,2013-02-24 20:37:00,
2013-02-24 20:42:00,35.1,25.6,30.31,North,0,3.1,6.0,68,0.00,,,0.00,pywws,2013-02-24 20:42:00,
2013-02-24 20:47:00,34.9,25.4,30.31,NW,315,1.6,6.0,68,0.00,,,0.00,pywws,2013-02-24 20:47:00,
2013-02-24 20:52:00,34.9,25.8,30.31,NW,315,2.2,4.5,69,0.00,,,0.00,pywws,2013-02-24 20:52:00,
2013-02-24 21:02:00,34.7,25.6,30.31,North,0,3.8,10.7,69,0.00,,,0.00,pywws,2013-02-24 21:02:00,
2013-02-24 21:07:00,34.9,25.8,30.31,NW,315,3.1,5.4,69,0.00,,,0.00,pywws,2013-02-24 21:07:00,
2013-02-24 21:12:00,34.9,26.1,30.31,North,0,3.1,5.4,70,0.00,,,0.00,pywws,2013-02-24 21:12:00,
2013-02-24 21:17:00,34.7,26.3,30.31,NW,315,1.6,6.9,71,0.00,,,0.00,pywws,2013-02-24 21:17:00,
2013-02-24 21:22:00,34.9,26.4,30.31,North,0,3.8,6.9,71,0.00,,,0.00,pywws,2013-02-24 21:22:00,
2013-02-24 21:32:00,34.7,26.3,30.32,NW,315,4.5,8.3,71,0.00,,,0.00,pywws,2013-02-24 21:32:00,
2013-02-24 21:37:00,34.9,26.4,30.32,North,0,0.7,3.1,71,0.00,,,0.00,pywws,2013-02-24 21:37:00,
2013-02-24 21:42:00,34.7,26.6,30.31,North,0,1.6,3.1,72,0.00,,,0.00,pywws,2013-02-24 21:42:00,
2013-02-24 21:47:00,34.7,26.6,30.31,NW,315,2.2,5.4,72,0.00,,,0.00,pywws,2013-02-24 21:47:00,
2013-02-24 21:52:00,34.7,26.6,30.31,North,0,2.2,5.4,72,0.00,,,0.00,pywws,2013-02-24 21:52:00,
2013-02-24 22:02:00,34.7,26.6,30.31,NE,45,3.1,6.0,72,0.00,,,0.00,pywws,2013-02-24 22:02:00,
2013-02-24 22:07:00,34.7,26.6,30.31,NNE,22,3.8,5.4,72,0.00,,,0.00,pywws,2013-02-24 22:07:00,
2013-02-24 22:12:00,34.5,26.1,30.31,NW,315,2.2,8.3,71,0.00,,,0.00,pywws,2013-02-24 22:12:00,
2013-02-24 22:17:00,38.3,29.7,30.31,West,270,1.6,6.9,71,0.00,,,0.00,pywws,2013-02-24 22:17:00,
2013-02-24 22:22:00,34.7,26.3,30.31,NW,315,3.1,6.0,71,0.00,,,0.00,pywws,2013-02-24 22:22:00,
2013-02-24 22:32:00,34.5,26.1,30.31,North,0,1.6,4.5,71,0.00,,,0.00,pywws,2013-02-24 22:32:00,
2013-02-24 22:37:00,34.5,26.4,30.31,North,0,4.5,9.8,72,0.00,,,0.00,pywws,2013-02-24 22:37:00,
2013-02-24 22:42:00,34.3,26.3,30.31,North,0,2.2,5.4,72,0.00,,,0.00,pywws,2013-02-24 22:42:00,
2013-02-24 22:47:00,34.2,26.1,30.31,North,0,0.7,2.2,72,0.00,,,0.00,pywws,2013-02-24 22:47:00,
2013-02-24 22:52:00,34.0,25.9,30.31,North,0,0.7,2.2,72,0.00,,,0.00,pywws,2013-02-24 22:52:00,
2013-02-24 23:02:00,34.2,26.1,30.31,NW,315,3.8,6.9,72,0.00,,,0.00,pywws,2013-02-24 23:02:00,
2013-02-24 23:07:00,34.2,26.1,30.30,WNW,292,1.6,4.5,72,0.00,,,0.00,pywws,2013-02-24 23:07:00,
2013-02-24 23:12:00,34.3,26.3,30.30,North,0,1.6,3.1,72,0.00,,,0.00,pywws,2013-02-24 23:12:00,
2013-02-24 23:17:00,34.3,26.3,30.30,NE,45,0.7,3.1,72,0.00,,,0.00,pywws,2013-02-24 23:17:00,
2013-02-24 23:22:00,34.3,26.3,30.30,North,0,3.8,6.9,72,0.00,,,0.00,pywws,2013-02-24 23:22:00,
2013-02-24 23:32:00,34.5,26.4,30.30,North,0,3.8,8.3,72,0.00,,,0.00,pywws,2013-02-24 23:32:00,
2013-02-24 23:37:00,34.7,26.9,30.31,NE,45,4.5,8.3,73,0.00,,,0.00,pywws,2013-02-24 23:37:00,
2013-02-24 23:42:00,35.2,27.5,30.31,NE,45,3.1,6.9,73,0.00,,,0.00,pywws,2013-02-24 23:42:00,
2013-02-24 23:47:00,34.7,26.9,30.31,NW,315,2.2,4.5,73,0.00,,,0.00,pywws,2013-02-24 23:47:00,
2013-02-24 23:52:00,35.2,27.5,30.31,North,0,3.8,6.9,73,0.00,,,0.00,pywws,2013-02-24 23:52:00,